When you browse on this site, cookies collect data to enhance your experience and personalize the content and advertising you see.
Visit our Privacy Policy to learn more. By continuing to use the site, you agree to this use of cookies and data.
  • In Österreich
  • Länderverzeichnis
  • Für 7 Tage
  • Wassertemperatur
  • Satellitenkarten
  • Wetterkarte
  • News
  • Widgets
  • user-avatar
    Anmelden

    Stündliche Wetter Coronado

    Heute, 23 April, Dienstag

    Zeit Temperatur Niederschläge Wind Luftdruck Luftfeuchtigkeit
    00:00 +19°C° 0 mm 1 m/S 760 mmHg 68%
    01:00 +19°C° 0 mm 1 m/S 759 mmHg 68%
    02:00 +19°C° 0 mm 1 m/S 759 mmHg 68%
    03:00 +16°C° 0 mm 0 m/S 759 mmHg 67%
    04:00 +16°C° 0 mm 0 m/S 759 mmHg 66%
    05:00 +17°C° 0 mm 0 m/S 759 mmHg 61%
    06:00 +18°C° 0 mm 0 m/S 760 mmHg 57%
    07:00 +21°C° 0 mm 1 m/S 760 mmHg 52%
    08:00 +23°C° 0 mm 1 m/S 760 mmHg 49%
    09:00 +24°C° 0 mm 1 m/S 760 mmHg 45%
    10:00 +26°C° 0 mm 2 m/S 760 mmHg 41%
    11:00 +26°C° 0 mm 2 m/S 760 mmHg 40%
    12:00 +27°C° 0 mm 3 m/S 760 mmHg 39%
    13:00 +28°C° 0 mm 3 m/S 759 mmHg 39%
    14:00 +27°C° 0 mm 3 m/S 759 mmHg 40%
    15:00 +27°C° 0 mm 3 m/S 759 mmHg 41%
    16:00 +26°C° 0 mm 2 m/S 758 mmHg 42%
    17:00 +25°C° 0 mm 2 m/S 759 mmHg 45%
    18:00 +24°C° 0 mm 1 m/S 759 mmHg 48%
    19:00 +23°C° 0 mm 1 m/S 759 mmHg 51%
    20:00 +23°C° 0 mm 1 m/S 760 mmHg 51%
    21:00 +23°C° 0 mm 1 m/S 760 mmHg 51%
    22:00 +22°C° 0 mm 1 m/S 760 mmHg 51%
    23:00 +22°C° 0 mm 1 m/S 760 mmHg 53%

    Morgen, 24 April, Mittwoch

    Zeit Temperatur Niederschläge Wind Luftdruck Luftfeuchtigkeit
    00:00 +21°C° 0 mm 1 m/S 760 mmHg 54%
    01:00 +21°C° 0 mm 1 m/S 760 mmHg 55%
    02:00 +20°C° 0 mm 1 m/S 760 mmHg 55%
    03:00 +20°C° 0 mm 1 m/S 760 mmHg 56%
    04:00 +18°C° 0 mm 0 m/S 760 mmHg 56%
    05:00 +21°C° 0 mm 1 m/S 760 mmHg 52%
    06:00 +22°C° 0 mm 1 m/S 760 mmHg 49%
    07:00 +23°C° 0 mm 1 m/S 760 mmHg 46%
    08:00 +24°C° 0 mm 1 m/S 761 mmHg 43%
    09:00 +25°C° 0 mm 2 m/S 761 mmHg 39%
    10:00 +27°C° 0 mm 2 m/S 761 mmHg 36%
    11:00 +27°C° 0 mm 2 m/S 761 mmHg 35%
    12:00 +28°C° 0 mm 3 m/S 760 mmHg 35%
    13:00 +28°C° 0 mm 3 m/S 760 mmHg 34%
    14:00 +28°C° 0 mm 3 m/S 760 mmHg 35%
    15:00 +28°C° 0 mm 3 m/S 759 mmHg 36%
    16:00 +27°C° 0 mm 3 m/S 759 mmHg 37%
    17:00 +26°C° 0 mm 2 m/S 759 mmHg 41%
    18:00 +25°C° 0 mm 2 m/S 759 mmHg 45%
    19:00 +23°C° 0 mm 1 m/S 760 mmHg 50%
    20:00 +23°C° 0 mm 1 m/S 760 mmHg 51%
    21:00 +23°C° 0 mm 1 m/S 760 mmHg 52%
    22:00 +22°C° 0 mm 1 m/S 761 mmHg 53%
    23:00 +22°C° 0 mm 1 m/S 760 mmHg 54%

    übermorgen, 25 April, Donnerstag

    Zeit Temperatur Niederschläge Wind Luftdruck Luftfeuchtigkeit
    00:00 +21°C° 0 mm 1 m/S 760 mmHg 55%
    01:00 +21°C° 0 mm 1 m/S 760 mmHg 56%
    02:00 +21°C° 0 mm 1 m/S 760 mmHg 56%
    03:00 +18°C° 0 mm 0 m/S 760 mmHg 56%
    04:00 +18°C° 0 mm 0 m/S 760 mmHg 56%
    05:00 +19°C° 0 mm 0 m/S 760 mmHg 52%
    06:00 +20°C° 0 mm 0 m/S 760 mmHg 47%
    07:00 +22°C° 0 mm 0 m/S 761 mmHg 42%
    08:00 +25°C° 0 mm 1 m/S 761 mmHg 39%
    09:00 +26°C° 0 mm 1 m/S 761 mmHg 35%
    10:00 +28°C° 0 mm 2 m/S 761 mmHg 32%
    11:00 +28°C° 0 mm 2 m/S 761 mmHg 32%
    12:00 +28°C° 0 mm 3 m/S 761 mmHg 32%
    13:00 +29°C° 0 mm 3 m/S 760 mmHg 33%
    14:00 +28°C° 0 mm 3 m/S 760 mmHg 34%
    15:00 +28°C° 0 mm 3 m/S 760 mmHg 35%
    16:00 +28°C° 0 mm 3 m/S 760 mmHg 36%
    17:00 +26°C° 0 mm 2 m/S 760 mmHg 40%
    18:00 +25°C° 0 mm 2 m/S 760 mmHg 45%
    19:00 +23°C° 0 mm 2 m/S 761 mmHg 49%
    20:00 +23°C° 0 mm 2 m/S 761 mmHg 52%
    21:00 +22°C° 0 mm 1 m/S 761 mmHg 54%
    22:00 +22°C° 0 mm 1 m/S 762 mmHg 56%
    23:00 +21°C° 0 mm 1 m/S 761 mmHg 57%

    26 April, Freitag

    Zeit Temperatur Niederschläge Wind Luftdruck Luftfeuchtigkeit
    00:00 +21°C° 0 mm 1 m/S 761 mmHg 57%
    01:00 +21°C° 0 mm 1 m/S 761 mmHg 58%
    02:00 +20°C° 0 mm 1 m/S 761 mmHg 57%
    03:00 +20°C° 0 mm 1 m/S 760 mmHg 57%
    04:00 +20°C° 0 mm 1 m/S 760 mmHg 57%
    05:00 +21°C° 0 mm 1 m/S 761 mmHg 53%
    06:00 +22°C° 0 mm 1 m/S 761 mmHg 49%
    07:00 +23°C° 0 mm 1 m/S 761 mmHg 45%
    08:00 +24°C° 0 mm 2 m/S 761 mmHg 43%
    09:00 +25°C° 0 mm 2 m/S 761 mmHg 40%
    10:00 +26°C° 0 mm 2 m/S 761 mmHg 38%
    11:00 +27°C° 0 mm 3 m/S 761 mmHg 38%
    12:00 +27°C° 0 mm 3 m/S 761 mmHg 38%
    13:00 +28°C° 0 mm 4 m/S 760 mmHg 38%
    14:00 +27°C° 0 mm 3 m/S 760 mmHg 39%
    15:00 +27°C° 0 mm 3 m/S 760 mmHg 41%
    16:00 +26°C° 0 mm 3 m/S 760 mmHg 42%
    17:00 +25°C° 0 mm 3 m/S 760 mmHg 46%
    18:00 +24°C° 0 mm 3 m/S 760 mmHg 49%
    19:00 +22°C° 0 mm 3 m/S 760 mmHg 53%
    20:00 +21°C° 0 mm 2 m/S 761 mmHg 55%
    21:00 +21°C° 0 mm 2 m/S 761 mmHg 57%
    22:00 +20°C° 0 mm 2 m/S 761 mmHg 59%
    23:00 +20°C° 0 mm 2 m/S 761 mmHg 60%

    27 April, Samstag

    Zeit Temperatur Niederschläge Wind Luftdruck Luftfeuchtigkeit
    00:00 +19°C° 0 mm 2 m/S 760 mmHg 61%
    01:00 +19°C° 0 mm 2 m/S 760 mmHg 62%
    02:00 +19°C° 0 mm 2 m/S 760 mmHg 64%
    03:00 +18°C° 0 mm 2 m/S 760 mmHg 66%
    04:00 +19°C° 0 mm 1 m/S 760 mmHg 68%
    05:00 +20°C° 0 mm 1 m/S 760 mmHg 64%
    06:00 +21°C° 0 mm 1 m/S 760 mmHg 60%
    07:00 +21°C° 0 mm 1 m/S 760 mmHg 55%
    08:00 +23°C° 0 mm 1 m/S 760 mmHg 50%
    09:00 +24°C° 0 mm 2 m/S 760 mmHg 45%
    10:00 +26°C° 0 mm 2 m/S 760 mmHg 40%
    11:00 +26°C° 0 mm 3 m/S 760 mmHg 40%
    12:00 +27°C° 0 mm 4 m/S 759 mmHg 40%
    13:00 +27°C° 0 mm 4 m/S 759 mmHg 40%
    14:00 +27°C° 0 mm 4 m/S 759 mmHg 41%
    15:00 +26°C° 0 mm 4 m/S 758 mmHg 42%
    16:00 +26°C° 0 mm 4 m/S 758 mmHg 43%
    17:00 +25°C° 0 mm 3 m/S 758 mmHg 47%
    18:00 +22°C° 0 mm 3 m/S 759 mmHg 51%
    19:00 +21°C° 0 mm 3 m/S 759 mmHg 55%
    20:00 +21°C° 0 mm 2 m/S 759 mmHg 57%
    21:00 +20°C° 0 mm 2 m/S 759 mmHg 59%
    22:00 +21°C° 0 mm 1 m/S 759 mmHg 61%
    23:00 +20°C° 0 mm 1 m/S 759 mmHg 63%

    28 April, Sonntag

    Zeit Temperatur Niederschläge Wind Luftdruck Luftfeuchtigkeit
    00:00 +20°C° 0 mm 1 m/S 759 mmHg 64%
    01:00 +20°C° 0 mm 1 m/S 758 mmHg 66%
    02:00 +20°C° 0 mm 1 m/S 758 mmHg 63%
    03:00 +20°C° 0 mm 1 m/S 758 mmHg 60%
    04:00 +18°C° 0 mm 0 m/S 758 mmHg 57%
    05:00 +20°C° 0 mm 1 m/S 758 mmHg 58%
    06:00 +19°C° 0 mm 2 m/S 759 mmHg 60%
    07:00 +20°C° 0 mm 2 m/S 759 mmHg 61%
    08:00 +21°C° 0 mm 2 m/S 759 mmHg 55%
    09:00 +23°C° 0 mm 1 m/S 759 mmHg 50%
    10:00 +25°C° 0 mm 1 m/S 759 mmHg 44%
    11:00 +25°C° 0 mm 2 m/S 758 mmHg 43%
    12:00 +26°C° 0 mm 3 m/S 757 mmHg 41%
    13:00 +26°C° 0 mm 4 m/S 757 mmHg 40%
    14:00 +26°C° 0 mm 3 m/S 756 mmHg 40%
    15:00 +25°C° 0 mm 3 m/S 756 mmHg 41%
    16:00 +25°C° 0 mm 3 m/S 756 mmHg 42%
    17:00 +24°C° 0 mm 3 m/S 756 mmHg 49%
    18:00 +21°C° 0 mm 3 m/S 756 mmHg 56%
    19:00 +20°C° 0 mm 4 m/S 756 mmHg 63%
    20:00 +19°C° 0 mm 3 m/S 756 mmHg 67%
    21:00 +19°C° 0 mm 3 m/S 757 mmHg 70%
    22:00 +18°C° 0 mm 2 m/S 757 mmHg 74%
    23:00 +18°C° 0 mm 2 m/S 757 mmHg 75%
    Mehr zeigen